| time (UTC) | temp F | wind direction | speed knots | gust knots | rain 1hr in | rain 24hr in | rain mn in | humidity % | barometer mb |
| 20260510070000 | 51 | 137 | 0.0 | 0.9 | 0.00 | 0.00 | 0.00 | 77 | 1014.3 |
| 20260510064601 | 50 | 137 | 0.0 | 1.7 | 0.00 | 0.00 | 0.00 | 76 | 1014.5 |
| 20260510063106 | 51 | 137 | 0.0 | 0.9 | 0.00 | 0.00 | 0.00 | 77 | 1014.4 |
| 20260510061559 | 50 | 137 | 0.9 | 1.7 | 0.00 | 0.00 | 0.00 | 75 | 1014.4 |
| 20260510060101 | 51 | 137 | 0.0 | 0.0 | 0.00 | 0.00 | 0.00 | 74 | 1014.4 |
| 20260510054559 | 53 | 137 | 0.0 | 0.9 | 0.00 | 0.00 | 0.00 | 69 | 1014.4 |
| 20260510053059 | 52 | 137 | 0.0 | 0.9 | 0.00 | 0.00 | 0.00 | 71 | 1014.7 |
| 20260510051642 | 54 | 137 | 0.0 | 2.6 | 0.00 | 0.00 | 0.00 | 69 | 1014.8 |
| 20260510050054 | 52 | 213 | 2.6 | 3.5 | 0.00 | 0.00 | 0.00 | 74 | 1015.0 |
| 20260510044554 | 56 | 139 | 0.9 | 2.6 | 0.00 | 0.00 | 0.00 | 66 | 1014.8 |
| 20260510043139 | 56 | 193 | 0.0 | 0.9 | 0.00 | 0.00 | 0.00 | 68 | 1015.0 |
| 20260510041554 | 59 | 193 | 0.0 | 1.7 | 0.00 | 0.00 | 0.00 | 63 | 1015.1 |
| 20260510040051 | 59 | 194 | 0.0 | 1.7 | 0.00 | 0.00 | 0.00 | 59 | 1015.0 |
| 20260510034554 | 62 | 110 | 0.0 | 2.6 | 0.00 | 0.00 | 0.00 | 55 | 1014.9 |
| 20260510033056 | 65 | 40 | 3.5 | 6.1 | 0.00 | 0.00 | 0.00 | 47 | 1014.9 |
| 20260510031620 | 66 | 72 | 2.6 | 6.1 | 0.00 | 0.00 | 0.00 | 46 | 1014.8 |
| 20260510030052 | 66 | 64 | 3.5 | 6.1 | 0.00 | 0.00 | 0.00 | 46 | 1014.8 |
| 20260510024547 | 67 | 84 | 3.5 | 5.2 | 0.00 | 0.00 | 0.00 | 49 | 1014.8 |
| 20260510023054 | 68 | 51 | 2.6 | 5.2 | 0.00 | 0.00 | 0.00 | 48 | 1014.8 |
| 20260510021546 | 70 | 51 | 3.5 | 7.0 | 0.00 | 0.00 | 0.00 | 44 | 1015.0 |
| 20260510020048 | 71 | 45 | 4.3 | 7.8 | 0.00 | 0.00 | 0.00 | 41 | 1015.1 |
| 20260510014544 | 72 | 49 | 5.2 | 7.8 | 0.00 | 0.00 | 0.00 | 41 | 1015.1 |
| 20260510013041 | 72 | 65 | 5.2 | 8.7 | 0.00 | 0.00 | 0.00 | 39 | 1015.2 |
| 20260510011553 | 73 | 41 | 6.1 | 10.4 | 0.00 | 0.00 | 0.00 | 38 | 1015.4 |
| 20260510010044 | 73 | 37 | 7.8 | 10.4 | 0.00 | 0.00 | 0.00 | 38 | 1015.5 |
| 20260510004536 | 74 | 11 | 6.1 | 11.3 | 0.00 | 0.00 | 0.00 | 33 | 1015.5 |
| 20260510003035 | 75 | 349 | 4.3 | 7.0 | 0.00 | 0.00 | 0.00 | 27 | 1015.6 |
| 20260510001532 | 74 | 331 | 2.6 | 7.8 | 0.00 | 0.00 | 0.00 | 27 | 1015.7 |
| 20260510000029 | 74 | 327 | 1.7 | 7.0 | 0.00 | 0.00 | 0.00 | 30 | 1015.7 |
| 20260509234527 | 74 | 14 | 5.2 | 8.7 | 0.00 | 0.00 | 0.00 | 29 | 1015.9 |
| 20260509233028 | 74 | 326 | 5.2 | 8.7 | 0.00 | 0.00 | 0.00 | 33 | 1016.1 |
| 20260509231522 | 74 | 311 | 2.6 | 7.8 | 0.00 | 0.00 | 0.00 | 36 | 1016.3 |
| 20260509230021 | 74 | 16 | 4.3 | 9.6 | 0.00 | 0.00 | 0.00 | 32 | 1016.4 |
| 20260509224520 | 74 | 29 | 1.7 | 7.0 | 0.00 | 0.00 | 0.00 | 35 | 1016.5 |
| 20260509223017 | 74 | 333 | 2.6 | 9.6 | 0.00 | 0.00 | 0.00 | 33 | 1016.6 |
| 20260509221517 | 73 | 271 | 2.6 | 10.4 | 0.00 | 0.00 | 0.00 | 33 | 1016.7 |
| 20260509220014 | 73 | 25 | 5.2 | 10.4 | 0.00 | 0.00 | 0.00 | 33 | 1016.8 |
| 20260509214512 | 73 | 338 | 4.3 | 8.7 | 0.00 | 0.00 | 0.00 | 32 | 1017.0 |
| 20260509213011 | 72 | 349 | 5.2 | 8.7 | 0.00 | 0.00 | 0.00 | 34 | 1017.2 |
| 20260509211506 | 71 | 340 | 5.2 | 11.3 | 0.00 | 0.00 | 0.00 | 32 | 1017.4 |
| 20260509210004 | 71 | 269 | 1.7 | 7.8 | 0.00 | 0.00 | 0.00 | 34 | 1017.6 |
| 20260509204502 | 71 | 301 | 3.5 | 7.0 | 0.00 | 0.00 | 0.00 | 36 | 1017.7 |
| 20260509203101 | 70 | 349 | 2.6 | 7.0 | 0.00 | 0.00 | 0.00 | 37 | 1017.8 |
| 20260509201557 | 70 | 9 | 5.2 | 7.8 | 0.00 | 0.00 | 0.00 | 40 | 1017.9 |
| 20260509200056 | 69 | 5 | 4.3 | 9.6 | 0.00 | 0.00 | 0.00 | 41 | 1018.1 |
| 20260509194559 | 69 | 327 | 3.5 | 6.1 | 0.00 | 0.00 | 0.00 | 43 | 1018.2 |
| 20260509193052 | 69 | 280 | 0.0 | 3.5 | 0.00 | 0.00 | 0.00 | 41 | 1018.6 |
| 20260509191551 | 67 | 89 | 1.7 | 7.0 | 0.00 | 0.00 | 0.00 | 43 | 1018.8 |
| 20260509190052 | 68 | 354 | 1.7 | 6.1 | 0.00 | 0.00 | 0.00 | 45 | 1019.1 |
| 20260509184548 | 67 | 356 | 0.9 | 5.2 | 0.00 | 0.00 | 0.00 | 43 | 1019.3 |
| 20260509183047 | 67 | 130 | 0.9 | 3.5 | 0.00 | 0.00 | 0.00 | 45 | 1019.4 |
| 20260509181545 | 66 | 200 | 0.9 | 4.3 | 0.00 | 0.00 | 0.00 | 48 | 1019.6 |
| 20260509180039 | 64 | 309 | 3.5 | 5.2 | 0.00 | 0.00 | 0.00 | 50 | 1019.7 |
| 20260509174538 | 64 | 30 | 0.9 | 5.2 | 0.00 | 0.00 | 0.00 | 50 | 1019.9 |
| 20260509173037 | 63 | 305 | 1.7 | 7.0 | 0.00 | 0.00 | 0.00 | 52 | 1019.8 |
| 20260509171538 | 63 | 50 | 2.6 | 6.1 | 0.00 | 0.00 | 0.00 | 52 | 1019.8 |
| 20260509170037 | 64 | 4 | 2.6 | 5.2 | 0.00 | 0.00 | 0.00 | 51 | 1019.9 |
| 20260509164534 | 63 | 209 | 0.0 | 4.3 | 0.00 | 0.00 | 0.00 | 52 | 1020.1 |
| 20260509163048 | 63 | 266 | 0.9 | 1.7 | 0.00 | 0.00 | 0.00 | 49 | 1020.2 |
| 20260509161531 | 61 | 225 | 0.0 | 2.6 | 0.00 | 0.00 | 0.00 | 53 | 1020.3 |
| 20260509160030 | 60 | 257 | 0.0 | 4.3 | 0.00 | 0.00 | 0.00 | 54 | 1020.3 |
| 20260509154526 | 60 | 271 | 0.9 | 2.6 | 0.00 | 0.00 | 0.00 | 55 | 1020.4 |
| 20260509153025 | 59 | 204 | 1.7 | 3.5 | 0.00 | 0.00 | 0.00 | 56 | 1020.1 |
| 20260509151521 | 58 | 176 | 2.6 | 4.3 | 0.00 | 0.00 | 0.00 | 57 | 1020.1 |
| 20260509150017 | 57 | 210 | 0.9 | 3.5 | 0.00 | 0.00 | 0.00 | 65 | 1020.3 |
| 20260509144516 | 55 | 245 | 2.6 | 3.5 | 0.00 | 0.00 | 0.00 | 70 | 1020.3 |
| 20260509143014 | 56 | 180 | 0.0 | 1.7 | 0.00 | 0.00 | 0.00 | 72 | 1020.2 |
| 20260509141517 | 51 | 203 | 0.9 | 2.6 | 0.00 | 0.00 | 0.00 | 80 | 1020.1 |
| 20260509140011 | 49 | 115 | 0.0 | 0.9 | 0.00 | 0.00 | 0.00 | 79 | 1020.3 |
| 20260509134509 | 47 | 115 | 0.0 | 1.7 | 0.00 | 0.00 | 0.00 | 78 | 1020.3 |
| 20260509133009 | 47 | 115 | 0.0 | 1.7 | 0.00 | 0.00 | 0.00 | 77 | 1020.3 |
| 20260509131510 | 45 | 115 | 0.0 | 0.9 | 0.00 | 0.00 | 0.00 | 79 | 1020.1 |
| 20260509130012 | 43 | 115 | 0.0 | 1.7 | 0.00 | 0.00 | 0.00 | 83 | 1020.1 |
| 20260509124502 | 44 | 115 | 0.9 | 2.6 | 0.00 | 0.00 | 0.00 | 81 | 1019.8 |
| 20260509123002 | 48 | 138 | 3.5 | 5.2 | 0.00 | 0.00 | 0.00 | 74 | 1019.8 |
| 20260509121600 | 45 | 139 | 0.9 | 2.6 | 0.00 | 0.00 | 0.00 | 80 | 1019.9 |
| 20260509120058 | 45 | 141 | 0.9 | 4.3 | 0.00 | 0.00 | 0.00 | 79 | 1019.8 |
| 20260509114559 | 47 | 140 | 2.6 | 5.2 | 0.00 | 0.00 | 0.00 | 77 | 1019.7 |
| 20260509113052 | 46 | 143 | 1.7 | 3.5 | 0.00 | 0.00 | 0.00 | 77 | 1019.9 |
| 20260509111551 | 47 | 146 | 0.0 | 4.3 | 0.00 | 0.00 | 0.00 | 75 | 1019.8 |
| 20260509110054 | 49 | 150 | 4.3 | 6.1 | 0.00 | 0.00 | 0.00 | 73 | 1019.7 |
| 20260509104546 | 49 | 94 | 2.6 | 5.2 | 0.00 | 0.00 | 0.00 | 71 | 1019.9 |
| 20260509103044 | 48 | 148 | 4.3 | 6.1 | 0.00 | 0.00 | 0.00 | 73 | 1019.7 |
| 20260509101543 | 49 | 142 | 2.6 | 5.2 | 0.00 | 0.00 | 0.00 | 70 | 1019.6 |
| 20260509100044 | 50 | 143 | 1.7 | 3.5 | 0.00 | 0.00 | 0.00 | 71 | 1019.8 |
| 20260509094540 | 49 | 167 | 0.9 | 4.3 | 0.00 | 0.00 | 0.00 | 72 | 1019.6 |
| 20260509093038 | 51 | 107 | 1.7 | 3.5 | 0.00 | 0.00 | 0.00 | 68 | 1019.6 |
| 20260509091538 | 53 | 198 | 6.1 | 9.6 | 0.00 | 0.00 | 0.00 | 64 | 1019.4 |
| 20260509090035 | 52 | 174 | 4.3 | 7.8 | 0.00 | 0.00 | 0.00 | 65 | 1019.4 |
| 20260509084539 | 51 | 159 | 5.2 | 7.0 | 0.00 | 0.00 | 0.00 | 69 | 1019.3 |
| 20260509083035 | 49 | 141 | 4.3 | 7.0 | 0.00 | 0.00 | 0.00 | 72 | 1019.4 |
| 20260509081532 | 49 | 134 | 1.7 | 7.0 | 0.00 | 0.00 | 0.00 | 71 | 1019.3 |
| 20260509080040 | 50 | 137 | 2.6 | 5.2 | 0.00 | 0.00 | 0.00 | 69 | 1019.2 |
| 20260509074527 | 50 | 127 | 0.9 | 4.3 | 0.00 | 0.00 | 0.00 | 69 | 1019.1 |
| 20260509073037 | 54 | 125 | 2.6 | 5.2 | 0.00 | 0.00 | 0.00 | 62 | 1019.0 |
| 20260509071518 | 55 | 166 | 4.3 | 7.8 | 0.00 | 0.00 | 0.00 | 58 | 1018.8 |